Flag for U.S.A. Weather past 2 weeks in Boulder, Colorado, U.S.A.

Now
9 °F

Light snow. Mostly cloudy.


Feels Like: 9 °F
Forecast: 6 / 24 °F
Wind: No wind

Location: Broomfield / Jeffco

Current Time: Mar 4, 2015 at 6:39:30 AM

Latest Report: Mar 4, 2015 at 5:47 AM


Visibility: 3 mi

Pressure: 30.07 "Hg

Humidity: 100%

Dew point: 9 °F

Location of BoulderLocation

Historic Weather in Boulder — Graph

°F

Boulder temperature yesterday

Maximum temperature yesterday: 41 °F (at 1:14 AM)
Minimum temperature yesterday: 14 °F (at 11:35 PM)
Average temperature yesterday: 28 °F

Past Weeks' High & Low Weather Summary

 TemperatureHumidityPressure
High63 °F (Feb 19, 1:46 PM)100% (Feb 20, 8:47 PM)30.35 "Hg (Feb 20, 8:47 PM)
Low-2 °F (Feb 23, 11:45 AM)17% (Feb 19, 3:47 PM)29.54 "Hg (Mar 2, 7:54 PM)
Average24 °F75%30.01 "Hg
* Reported Feb 17 4:15 AM — Mar 4 4:55 AM, Boulder, Weather by CustomWeather, © 2015

Note: Actual official high and low records may vary slightly from our data, if they occured in-between our weather recording intervals... More about our weather records

Advertising

Boulder weather history for previous 24 hours

 ConditionsComfort  
Time TempWeatherWind HumidityBarometerVisibility
4:55 AM
Wed, Mar 4
12 °FLight snow. Overcast.No wind92%30.06 "Hg4 mi
4:34 AM12 °FLight snow. Overcast.3 mph92%30.05 "Hg5 mi
4:15 AM12 °FLight snow. Overcast.6 mph92%30.03 "Hg4 mi
3:54 AM12 °FLight snow. Overcast.6 mph92%30.02 "Hg4 mi
3:35 AM12 °FOvercast.6 mph92%30.02 "Hg10 mi
3:15 AM12 °FOvercast.7 mph92%30.00 "Hg10 mi
2:55 AM12 °FLight snow. Overcast.8 mph92%29.99 "Hg10 mi
2:35 AM12 °FLight snow. Overcast.8 mph92%29.99 "Hg7 mi
2:15 AM12 °FLight snow. Mostly cloudy.8 mph92%29.99 "Hg3 mi
1:55 AM14 °FLight snow. Low clouds.10 mph92%29.98 "Hg2 mi
1:34 AM14 °FLight snow. Mostly cloudy.7 mph92%29.97 "Hg4 mi
1:15 AM14 °FLight snow. Mostly cloudy.9 mph92%29.96 "Hg7 mi
12:55 AM14 °FLight snow. Mostly cloudy.10 mph92%29.95 "Hg7 mi
12:35 AM14 °FLight snow. Mostly cloudy.8 mph92%29.94 "Hg7 mi
12:15 AM14 °FLight snow. Low clouds.8 mph92%29.94 "Hg7 mi
11:55 PM
Tue, Mar 3
14 °FLight snow. Mostly cloudy.9 mph92%29.93 "Hg7 mi
11:35 PM14 °FLight snow. Overcast.10 mph100%29.93 "Hg10 mi
11:15 PM16 °FLight snow. Overcast.13 mph93%29.93 "Hg7 mi
10:55 PM18 °FLight snow. Overcast.12 mph86%29.92 "Hg3 mi
10:35 PM19 °FLight snow. Overcast.9 mph93%29.92 "Hg2 mi
10:14 PM19 °FLight snow. Overcast.6 mph93%29.91 "Hg5 mi
9:49 PM18 °FLight snow. Mostly cloudy.5 mph93%29.90 "Hg2 mi
8:45 PM19 °FLight snow. Low clouds.5 mph93%29.89 "Hg2 mi
7:53 PM21 °FLight snow. Mostly cloudy.7 mph86%29.87 "Hg2 mi
6:46 PM19 °FDrizzle. Mostly cloudy.6 mph86%29.83 "Hg5 mi
5:48 PM19 °FDrizzle. More clouds than sun.No wind86%29.81 "Hg7 mi
2:53 PM19 °FIce fog.7 mph86%29.81 "Hg3 mi
12:46 PM19 °FLight snow. Partly sunny.8 mph86%29.85 "Hg3 mi
11:53 AM19 °FIce fog.10 mph86%29.86 "Hg4 mi
10:47 AM21 °FLight snow. Ice fog.12 mph86%29.90 "Hg4 mi
9:58 AM21 °FIce fog.10 mph86%29.90 "Hg4 mi
8:57 AM23 °FOvercast.14 mph80%29.89 "Hg5 mi
6:55 AM39 °FBroken clouds.14 mph48%29.79 "Hg10 mi
Weather by CustomWeather, © 2015

See weather overviewHow to use our weather pages